TimeEST,TemperatureF,Dew PointF,Humidity,Sea Level PressureIn,VisibilityMPH,Wind Direction,Wind SpeedMPH,Gust SpeedMPH,PrecipitationIn,Events,Conditions,WindDirDegrees,DateUTC
12:54 AM,19.0,7.0,59,29.96,-9999.0,West,9.2,-,N/A,,Unknown,260,2013-02-05 05:54:00
1:54 AM,19.0,7.0,59,29.98,-9999.0,West,10.4,-,N/A,,Unknown,280,2013-02-05 06:54:00
2:54 AM,19.9,7.0,57,29.97,-9999.0,West,8.1,-,N/A,,Unknown,270,2013-02-05 07:54:00
3:54 AM,19.9,7.0,57,29.97,-9999.0,WSW,5.8,-,N/A,,Unknown,240,2013-02-05 08:54:00
4:54 AM,19.9,8.1,60,29.98,-9999.0,West,4.6,-,N/A,,Unknown,280,2013-02-05 09:54:00
5:54 AM,19.9,8.1,60,29.98,-9999.0,SW,3.5,-,N/A,,Unknown,230,2013-02-05 10:54:00
6:54 AM,21.0,9.0,60,30.00,-9999.0,Calm,Calm,-,N/A,,Unknown,0,2013-02-05 11:54:00
7:54 AM,21.0,9.0,60,30.03,-9999.0,WSW,4.6,-,N/A,,Unknown,240,2013-02-05 12:54:00
8:54 AM,21.9,10.0,60,30.02,-9999.0,Calm,Calm,-,N/A,,Unknown,0,2013-02-05 13:54:00
9:54 AM,23.0,9.0,55,30.03,-9999.0,Calm,Calm,-,N/A,,Unknown,0,2013-02-05 14:54:00
10:54 AM,23.0,9.0,55,30.04,-9999.0,Calm,Calm,-,N/A,,Unknown,0,2013-02-05 15:54:00
11:54 AM,24.1,10.0,55,30.01,-9999.0,Calm,Calm,-,N/A,,Unknown,0,2013-02-05 16:54:00
12:54 PM,24.1,12.0,60,30.00,-9999.0,Calm,Calm,-,N/A,,Unknown,0,2013-02-05 17:54:00
1:54 PM,25.0,12.9,60,29.99,-9999.0,SSE,3.5,-,N/A,,Unknown,150,2013-02-05 18:54:00
2:54 PM,25.0,12.9,60,29.99,-9999.0,SE,3.5,-,N/A,,Unknown,130,2013-02-05 19:54:00
3:54 PM,24.1,12.9,62,29.96,-9999.0,ESE,5.8,-,N/A,,Unknown,110,2013-02-05 20:54:00
4:54 PM,24.1,12.9,62,29.97,-9999.0,SE,4.6,-,N/A,,Unknown,130,2013-02-05 21:54:00
5:54 PM,24.1,15.1,69,29.96,-9999.0,ESE,6.9,-,N/A,,Unknown,120,2013-02-05 22:54:00
6:54 PM,24.1,17.1,75,29.98,-9999.0,SE,4.6,-,N/A,,Unknown,130,2013-02-05 23:54:00
7:54 PM,21.9,19.0,89,29.97,-9999.0,East,4.6,-,0.01,,Unknown,100,2013-02-06 00:54:00
8:54 PM,23.0,19.9,88,29.97,-9999.0,East,3.5,-,0.01,,Unknown,100,2013-02-06 01:54:00
9:54 PM,24.1,19.9,84,29.97,-9999.0,NE,3.5,-,0.01,,Unknown,40,2013-02-06 02:54:00
10:54 PM,24.1,21.0,88,29.96,-9999.0,ENE,4.6,-,0.01,,Unknown,70,2013-02-06 03:54:00
11:54 PM,24.1,21.0,88,29.94,-9999.0,ENE,6.9,-,N/A,,Unknown,70,2013-02-06 04:54:00